Tracking 34085 objects as of 13-May-2026
HD Live streaming from Space Station
objects crossing your sky now

STARLINK-36934

Track STARLINK-36934 now!
10-day predictions
STARLINK-36934 is classified as:


NORAD ID: 68279
Int'l Code: 2026-055T
Perigee: 446.1 km
Apogee: 447.6 km
Inclination: 53.2 °
Period: 93.4 minutes
Semi major axis: 6817 km
RCS: Unknown
Launch date: March 19, 2026
Source: United States (US)
Launch site: AIR FORCE EASTERN TEST RANGE (AFETR)
Your satellite tracking list
Your tracking list is empty




NASA's NSSDC Master Catalog

Two Line Element Set (TLE):
1 68279U 26055T   26132.83782315  .00024102  00000-0  56148-3 0  9997
2 68279  53.1601  21.2175 0001140  83.0557 277.0578 15.42164567  9750
Source of the keplerian elements: AFSPC